Вернуться в каталог

CZ-6A DEB

АктивенSSO
NORAD 56675·DEBRIS·🇨🇳 China

Запущен Nov 11, 2022 с Taiyuan Satellite Launch Center

Loading…

Ближайшие Пролёты (ближайшие 24 часа)

TLE

СвежийSource: Space-Track

Эпоха: Sep 14, 2026, 11:14 UTC

1 56675U 22151AHB 26257.46827548  .00000631  00000-0  36802-3 0  9998
2 56675  98.8819 260.9646 0077791  44.2871 316.4489 14.10595789179476

Отслеживайте CZ-6A DEB в реальном времени с AllMySat

Download on the App Store